Wind_Speed
46 48 52 50 49 49 48 47 49 47 46 48 49 50 53 53 56 59 51 49 49 48 42 30 25 17 15 19 23 24 21 18 21 7 14 23 31 26 27 30 26 21 16 15
50 54 56 54 54 53 50 50 53 52 49 50 51 52 54 55 54 57 48 45 52 47 33 22 20 10 17 19 24 22 18 18 30 27 16 16 30 31 34 32 30 26 20 20
54 61 57 59 58 57 54 55 57 55 55 55 55 55 53 52 53 48 42 46 51 38 26 11 11 8 9 12 14 20 20 25 42 39 30 17 21 28 39 37 36 33 27 24
62 63 63 63 62 62 59 60 61 63 58 59 55 55 61 54 49 39 42 45 43 27 11 2 1 2 11 9 16 15 22 16 33 35 30 21 22 25 35 41 38 37 32 31
70 66 66 67 69 65 65 66 63 64 62 60 60 60 64 54 40 35 37 39 27 9 12 13 11 17 19 22 7 26 18 25 21 32 41 43 26 26 29 41 45 43 42 35
77 73 70 72 73 71 71 69 68 65 65 61 64 53 55 50 35 39 39 37 21 14 15 22 10 16 18 14 20 20 19 36 30 32 47 42 28 27 25 31 41 45 48 43
82 78 75 76 77 76 72 72 67 63 62 60 57 46 43 41 36 40 38 31 21 18 17 17 17 9 9 7 23 20 13 31 33 34 45 42 32 24 25 26 33 45 52 48
81 81 80 76 71 71 71 68 62 61 57 48 45 41 42 40 39 37 35 28 21 23 23 17 13 10 10 5 9 14 13 22 31 36 31 36 32 23 22 25 26 31 44 51
77 74 76 73 73 69 66 63 60 54 48 40 40 38 38 39 39 34 35 29 26 23 26 23 21 9 24 17 13 10 8 24 25 23 27 33 34 25 24 25 26 28 31 40
76 73 72 71 68 66 63 61 50 46 41 37 39 39 36 36 39 36 33 28 27 24 29 23 26 18 25 18 6 8 14 22 23 25 29 32 36 28 25 26 25 26 24 27
73 70 68 66 65 65 59 48 43 37 35 38 41 41 40 38 37 30 27 29 27 23 23 19 18 16 33 15 17 12 17 18 26 30 30 35 36 33 25 29 29 28 21 23
67 63 66 59 57 54 46 37 38 36 41 41 40 41 41 37 34 25 28 29 28 29 25 29 24 23 25 18 17 12 17 29 38 44 41 35 33 30 27 25 29 31 27 21
60 54 54 53 48 42 37 41 43 42 45 41 39 42 39 30 32 30 32 34 31 33 33 31 28 31 27 27 34 24 19 24 24 25 27 32 33 28 25 22 26 31 33 28
55 49 46 46 47 42 43 44 43 42 44 42 43 43 35 33 35 33 33 33 32 28 30 34 23 24 37 31 34 18 23 17 17 35 39 39 35 30 26 17 21 26 34 33
51 46 45 49 49 47 46 46 46 47 47 45 45 42 39 39 37 37 34 32 32 24 27 34 27 30 43 34 27 31 20 18 29 36 28 27 26 29 20 19 29 26 27 37
48 47 49 49 53 53 53 49 46 50 50 49 47 40 38 39 39 36 33 35 31 28 20 35 31 31 37 36 32 37 33 44 56 47 37 27 26 27 32 33 34 32 29 30
48 53 52 52 54 57 53 49 49 52 52 49 45 42 39 40 38 33 33 34 33 30 26 22 37 29 32 34 31 35 45 45 40 36 25 30 41 39 32 34 36 39 30 31
50 55 56 54 56 56 53 51 51 51 48 46 41 42 41 40 38 35 35 37 32 28 19 22 40 38 30 27 33 35 38 31 21 15 22 31 47 35 24 26 33 36 29 32
55 55 56 56 58 54 50 50 53 44 40 40 37 37 37 38 38 34 37 34 33 28 19 22 29 38 29 32 29 28 23 26 24 26 35 38 38 41 34 28 23 23 23 30
56 56 56 57 54 54 51 50 47 42 40 41 38 36 38 40 39 39 39 34 29 29 20 23 26 32 43 31 23 12 24 29 32 33 38 36 40 38 36 26 20 24 28 27
57 56 51 51 53 55 53 48 46 45 41 41 38 38 41 43 43 43 42 38 32 30 28 24 26 29 34 35 31 24 27 20 21 31 34 35 33 39 29 30 22 23 30 36
56 56 54 54 55 57 52 51 50 46 42 42 42 42 44 44 45 47 47 40 36 30 34 29 26 33 36 42 35 30 26 20 17 30 32 37 39 38 30 37 38 30 39 40
55 54 52 52 53 54 52 51 47 41 42 46 46 45 44 44 47 47 44 42 36 35 33 30 34 40 41 44 43 32 28 27 20 24 32 38 37 31 39 38 46 43 53 57
51 50 47 46 47 49 48 51 45 41 41 47 46 43 42 44 41 39 40 40 42 40 39 39 40 36 42 43 46 40 37 36 38 33 35 45 39 44 46 45 52 50 58 65
40 39 42 42 43 44 41 44 42 40 36 44 42 42 45 45 44 45 46 46 43 42 39 37 36 34 36 43 48 48 41 48 39 41 42 45 48 52 44 52 46 51 48 54
41 37 40 40 39 42 43 43 42 41 40 41 43 46 49 49 49 49 41 40 40 40 39 39 38 40 38 37 40 37 42 43 44 46 50 50 53 51 50 55 56 53 50 52
Wind_Direction
275 277 274 278 282 284 288 294 296 299 303 308 313 318 321 320 327 329 331 332 339 331 339 352 352 0 13 23 52 44 44 51 34 3 248 246 227 228 237 245 251 242 249 230
272 272 274 278 280 282 288 291 294 297 302 304 312 314 317 319 323 323 324 324 334 336 339 358 360 2 26 56 69 57 47 29 11 1 333 275 253 240 223 240 248 250 249 239
272 272 276 277 280 284 286 291 293 297 301 307 311 313 313 317 320 322 315 319 334 340 347 27 12 33 44 89 88 69 31 1 346 330 326 301 276 254 218 228 242 243 247 243
270 270 273 277 280 281 287 289 294 297 302 304 309 310 311 317 320 312 308 314 336 348 33 65 347 130 104 144 110 52 13 325 336 330 337 322 300 272 238 221 232 239 241 245
269 271 275 277 278 282 285 287 291 296 300 305 305 311 311 315 319 305 297 301 333 53 104 144 137 117 95 51 11 19 252 286 301 317 303 305 310 278 247 235 232 232 243 244
269 270 274 278 280 281 283 289 291 297 301 304 304 312 303 313 308 296 292 294 313 159 173 153 122 82 58 34 46 87 342 311 252 311 308 296 299 284 265 249 242 231 234 242
268 271 273 275 279 282 287 287 291 295 297 300 304 307 293 297 292 288 286 286 292 189 149 163 147 125 223 112 109 115 9 273 258 283 304 294 297 287 281 269 251 239 242 235
267 270 273 277 279 281 285 287 290 292 297 298 296 296 294 291 284 284 283 274 277 237 197 185 172 256 300 327 179 184 210 266 272 291 294 309 294 282 287 282 258 251 245 243
267 271 272 275 278 281 283 285 290 291 292 289 285 285 284 284 283 273 267 262 265 251 217 214 197 261 294 229 258 244 277 276 289 302 327 322 311 280 279 285 280 254 249 242
266 268 271 272 274 277 280 286 286 286 287 283 278 275 272 270 274 269 257 252 252 228 221 243 229 224 210 215 225 232 231 287 309 323 325 322 314 285 272 280 284 274 260 248
265 266 268 270 273 277 281 283 277 278 274 269 269 271 270 267 270 268 237 237 241 236 252 230 222 235 228 238 192 212 249 290 318 321 325 329 316 293 273 257 271 283 270 258
258 259 265 268 270 273 274 267 262 264 263 263 264 266 268 270 267 247 226 229 231 249 231 212 236 203 204 205 157 217 257 307 308 312 309 314 314 296 280 280 271 271 275 268
254 254 257 263 265 261 256 254 253 254 255 260 263 259 261 255 246 231 222 225 223 232 229 216 230 199 192 184 203 247 267 317 316 331 315 320 320 309 290 284 276 269 276 274
246 247 250 254 252 255 252 249 256 258 258 260 262 259 248 239 237 230 224 227 231 229 224 218 216 224 221 231 234 259 275 310 323 333 323 315 311 304 298 305 305 288 265 266
241 239 238 243 247 248 247 247 253 257 262 262 260 253 242 237 233 226 224 229 240 242 233 221 218 216 221 227 234 243 274 300 303 321 323 317 301 283 280 300 317 304 285 264
234 235 238 238 243 244 246 252 256 260 264 264 263 244 242 240 236 230 221 226 237 244 238 222 220 234 224 228 242 238 275 290 294 305 325 334 314 291 267 266 296 309 291 268
229 236 236 237 241 245 251 258 259 262 264 263 258 244 239 239 236 228 225 231 235 245 259 241 219 233 245 248 262 264 284 296 301 295 322 337 344 333 287 277 283 289 284 263
229 234 237 237 240 246 251 255 262 265 264 256 249 246 237 236 236 233 230 235 240 242 265 247 216 229 234 261 250 264 271 292 302 319 320 322 332 343 324 293 284 290 275 254
232 234 237 239 244 248 256 261 263 259 255 249 242 238 236 237 244 241 243 243 245 261 270 238 226 220 227 243 235 257 257 304 300 307 306 312 327 347 9 4 340 319 301 263
234 233 235 241 246 255 257 259 257 248 245 241 237 230 232 235 239 240 243 245 249 260 243 224 223 218 231 236 224 255 260 287 307 305 299 312 325 342 345 359 346 334 329 310
233 232 234 238 248 253 255 254 250 248 244 235 233 229 228 232 237 241 242 242 243 254 244 233 234 238 230 230 230 226 225 253 296 299 311 317 315 329 341 341 331 340 325 321
238 237 240 246 246 244 245 247 243 238 239 231 232 230 227 230 234 239 240 237 236 245 242 230 234 255 247 227 226 228 238 248 264 281 304 307 310 328 325 327 324 314 315 312
242 247 249 246 244 242 237 243 242 237 230 228 229 231 229 235 235 235 235 232 235 238 234 223 240 246 256 249 238 243 239 248 250 268 286 303 297 320 312 327 323 313 321 316
241 244 242 236 233 233 239 237 241 239 232 224 225 227 234 229 229 230 232 232 234 237 235 247 248 249 269 252 254 245 244 243 247 264 281 296 282 292 305 301 316 315 318 314
232 233 229 237 236 235 237 236 240 240 239 228 230 233 234 228 230 232 232 238 237 244 242 247 250 250 260 254 256 248 248 257 255 260 264 276 279 283 299 310 312 314 320 323
228 233 233 234 234 232 233 235 235 232 234 231 227 227 228 234 237 238 236 238 241 242 245 243 253 251 254 257 248 252 253 261 255 255 268 268 266 282 292 298 303 301 313 319
Height
10960 10957 10955 10960 10962 10962 10965 10965 10962 10963 10963 10961 10961 10957 10946 10937 10940 10936 10933 10930 10927 10918 10915 10914 10912 10907 10907 10911 10906 10907 10906 10907 10909 10910 10916 10918 10918 10919 10922 10920 10922 10925 10926 10928
10949 10947 10947 10950 10951 10953 10957 10956 10952 10953 10957 10956 10956 10952 10947 10934 10933 10929 10924 10923 10925 10921 10918 10913 10908 10907 10910 10910 10908 10909 10914 10919 10919 10920 10916 10915 10916 10916 10917 10919 10920 10922 10925 10926
10939 10934 10940 10939 10941 10943 10946 10946 10942 10946 10947 10946 10947 10943 10943 10937 10929 10919 10915 10913 10919 10918 10913 10909 10905 10907 10907 10905 10903 10899 10908 10914 10916 10915 10916 10910 10911 10911 10912 10914 10916 10919 10921 10923
10927 10927 10929 10930 10930 10932 10935 10936 10933 10932 10938 10936 10937 10932 10930 10930 10927 10919 10909 10908 10916 10912 10908 10905 10902 10900 10903 10898 10891 10894 10916 10914 10916 10917 10912 10910 10907 10906 10905 10909 10911 10914 10916 10917
10909 10918 10920 10921 10917 10924 10923 10924 10927 10923 10925 10925 10922 10924 10910 10915 10917 10913 10905 10905 10914 10909 10906 10904 10902 10900 10902 10901 10895 10906 10908 10912 10912 10910 10908 10907 10903 10901 10898 10901 10904 10908 10911 10911
10896 10905 10910 10907 10906 10910 10911 10912 10915 10916 10913 10912 10907 10917 10895 10904 10904 10901 10896 10897 10906 10904 10898 10898 10900 10901 10907 10906 10902 10903 10920 10910 10905 10901 10904 10899 10897 10895 10893 10892 10894 10896 10903 10906
10885 10893 10899 10896 10895 10897 10900 10900 10904 10907 10905 10902 10895 10905 10898 10894 10895 10891 10888 10887 10894 10897 10899 10895 10894 10893 10892 10897 10897 10910 10908 10906 10902 10901 10897 10890 10889 10886 10887 10888 10887 10888 10892 10899
10878 10879 10882 10887 10885 10886 10886 10888 10892 10893 10893 10892 10887 10889 10887 10887 10886 10884 10878 10878 10885 10889 10893 10893 10888 10886 10894 10890 10898 10893 10897 10900 10894 10889 10886 10885 10882 10879 10879 10881 10882 10882 10885 10888
10866 10866 10868 10872 10872 10873 10875 10874 10877 10880 10880 10879 10877 10877 10878 10878 10877 10874 10870 10874 10878 10881 10886 10885 10886 10887 10892 10888 10891 10887 10889 10887 10886 10882 10880 10878 10876 10875 10875 10877 10879 10877 10878 10879
10853 10853 10851 10856 10858 10858 10859 10863 10863 10865 10868 10866 10863 10864 10865 10867 10865 10866 10868 10871 10872 10873 10875 10876 10877 10880 10881 10881 10877 10875 10882 10886 10882 10878 10874 10874 10872 10871 10870 10869 10872 10874 10873 10871
10837 10837 10835 10840 10842 10844 10848 10851 10850 10851 10853 10852 10851 10851 10852 10854 10853 10857 10863 10865 10864 10865 10864 10868 10875 10872 10867 10867 10867 10871 10880 10882 10875 10871 10870 10870 10869 10863 10865 10866 10867 10868 10865 10865
10818 10822 10819 10825 10827 10831 10836 10837 10836 10839 10837 10839 10841 10842 10842 10844 10843 10848 10853 10855 10856 10852 10854 10860 10862 10860 10862 10867 10868 10872 10875 10871 10866 10867 10869 10867 10866 10863 10861 10861 10861 10862 10861 10858
10804 10810 10805 10812 10815 10819 10822 10823 10823 10824 10823 10828 10830 10831 10831 10832 10831 10835 10841 10841 10846 10842 10847 10854 10856 10856 10861 10861 10861 10862 10866 10863 10863 10865 10865 10864 10861 10858 10856 10855 10854 10854 10853 10855
10788 10795 10797 10797 10799 10805 10809 10810 10811 10813 10813 10818 10818 10818 10819 10819 10819 10827 10832 10832 10833 10835 10843 10849 10852 10852 10854 10859 10858 10857 10857 10856 10858 10864 10863 10857 10853 10848 10845 10847 10848 10846 10846 10846
10775 10781 10784 10785 10787 10792 10797 10798 10799 10800 10801 10805 10806 10806 10806 10808 10810 10815 10823 10828 10828 10832 10837 10843 10845 10847 10846 10845 10846 10846 10848 10848 10853 10858 10850 10844 10843 10841 10836 10837 10837 10837 10837 10838
10762 10767 10771 10775 10775 10777 10781 10786 10789 10789 10791 10793 10794 10796 10797 10799 10803 10809 10817 10821 10821 10823 10825 10832 10838 10841 10843 10841 10844 10846 10848 10853 10851 10850 10844 10838 10835 10831 10828 10826 10827 10826 10825 10826
10750 10754 10759 10763 10764 10763 10769 10775 10777 10778 10780 10781 10784 10786 10789 10790 10794 10802 10805 10809 10813 10815 10817 10823 10833 10837 10842 10843 10844 10849 10849 10846 10841 10836 10832 10828 10824 10817 10814 10814 10813 10812 10811 10813
10738 10742 10745 10751 10751 10755 10759 10762 10764 10765 10768 10770 10773 10778 10781 10783 10786 10793 10797 10799 10803 10808 10813 10816 10823 10827 10832 10834 10835 10839 10840 10837 10833 10827 10821 10820 10819 10809 10798 10796 10798 10798 10799 10799
10728 10733 10735 10738 10741 10746 10750 10751 10751 10753 10757 10760 10763 10769 10775 10779 10781 10788 10789 10793 10796 10798 10802 10807 10808 10817 10823 10821 10825 10830 10831 10825 10822 10820 10816 10813 10809 10808 10793 10787 10788 10790 10791 10794
10716 10721 10727 10729 10731 10732 10738 10739 10739 10744 10747 10749 10754 10761 10767 10770 10772 10776 10781 10784 10786 10790 10790 10794 10802 10805 10811 10812 10811 10807 10815 10817 10815 10811 10808 10805 10806 10799 10795 10786 10785 10785 10788 10791
10703 10709 10715 10718 10719 10721 10725 10728 10730 10732 10738 10741 10746 10751 10755 10758 10761 10763 10768 10772 10776 10778 10779 10785 10791 10793 10796 10797 10798 10797 10799 10801 10800 10804 10801 10800 10797 10790 10789 10786 10783 10782 10783 10783
10691 10699 10704 10706 10707 10707 10715 10714 10716 10722 10728 10732 10734 10738 10742 10746 10749 10752 10757 10761 10764 10770 10770 10776 10780 10783 10783 10785 10789 10791 10791 10788 10788 10792 10794 10793 10789 10783 10781 10782 10781 10775 10774 10773
10679 10685 10688 10690 10693 10697 10702 10703 10709 10715 10717 10721 10724 10728 10733 10737 10742 10746 10752 10756 10760 10764 10767 10766 10767 10764 10770 10775 10778 10778 10779 10781 10784 10783 10783 10786 10782 10776 10775 10774 10773 10768 10765 10763
10665 10669 10673 10676 10680 10686 10691 10695 10701 10706 10710 10713 10716 10720 10726 10731 10737 10741 10743 10746 10749 10752 10756 10758 10759 10762 10772 10768 10771 10775 10771 10771 10772 10773 10772 10776 10774 10772 10771 10771 10766 10761 10758 10754
10654 10657 10661 10666 10672 10679 10683 10688 10695 10699 10701 10707 10712 10715 10719 10724 10726 10728 10731 10738 10742 10744 10747 10748 10750 10751 10751 10751 10756 10761 10759 10762 10763 10761 10762 10765 10764 10760 10758 10757 10756 10755 10751 10745
10643 10648 10652 10658 10662 10667 10672 10676 10681 10688 10691 10696 10701 10705 10709 10711 10712 10715 10721 10726 10729 10732 10734 10734 10734 10735 10736 10735 10743 10746 10750 10750 10751 10750 10750 10751 10748 10747 10745 10746 10746 10747 10742 10739